Tracking 30923 objects as of 1-Jul-2025
HD Live streaming from Space Station
objects crossing your sky now

SL-8 DEB

Track SL-8 DEB now!
10-day predictions


NORAD ID: 27769
Int'l Code: 2002-054E
Perigee: 618.0 km
Apogee: 659.9 km
Inclination: 98.3 °
Period: 97.3 minutes
Semi major axis: 7009 km
RCS: 0.0082 m2 (small)
Launch date: November 28, 2002
Source: Commonwealth of Independent States (former USSR) (CIS)
Launch site: PLESETSK MISSILE AND SPACE COMPLEX (PKMTR)

Note: This is SATELLITE DEBRIS
Your satellite tracking list
DELTA 1 R/B
Track 1 satellite(s)




NASA's NSSDC Master Catalog

Two Line Element Set (TLE):
1 27769U 02054E   25181.87038797  .00002271  00000-0  31117-3 0  9996
2 27769  98.2721  40.1076 0029912 114.9883 245.4439 14.79207321205652
Source of the keplerian elements: AFSPC